Time,TemperatureF,DewpointF,PressureIn,WindDirection,WindDirectionDegrees,WindSpeedMPH,WindSpeedGustMPH,Humidity,HourlyPrecipIn,Conditions,Clouds,dailyrainin,SoftwareType,DateUTC
2013-08-19 00:01:00,62.2,61.0,29.84,South,180,2.0,5.0,98,0.00,,,0.00,Rainwise IP-100,2013-08-19 04:01:00,
2013-08-19 00:06:00,62.1,61.0,29.83,South,180,2.0,4.0,98,0.00,,,0.00,Rainwise IP-100,2013-08-19 04:06:00,
2013-08-19 00:11:00,62.0,61.0,29.83,South,180,3.0,4.0,98,0.00,,,0.00,Rainwise IP-100,2013-08-19 04:11:00,
2013-08-19 00:16:00,62.0,61.0,29.83,SSE,157,1.0,4.0,98,0.00,,,0.00,Rainwise IP-100,2013-08-19 04:16:00,
2013-08-19 00:21:00,62.1,61.0,29.83,ESE,112,2.0,3.0,98,0.00,,,0.00,Rainwise IP-100,2013-08-19 04:21:00,
2013-08-19 00:26:00,62.2,61.0,29.83,SE,135,0.0,4.0,98,0.00,,,0.00,Rainwise IP-100,2013-08-19 04:26:00,
2013-08-19 00:31:00,62.1,61.0,29.83,ESE,112,1.0,2.0,98,0.00,,,0.00,Rainwise IP-100,2013-08-19 04:31:00,
2013-08-19 00:36:00,62.1,61.0,29.83,SSE,157,1.0,3.0,98,0.00,,,0.00,Rainwise IP-100,2013-08-19 04:36:00,
2013-08-19 00:41:00,62.1,61.0,29.82,SE,135,2.0,2.0,97,0.00,,,0.00,Rainwise IP-100,2013-08-19 04:41:00,
2013-08-19 00:46:00,61.9,61.0,29.83,ENE,67,1.0,3.0,97,0.00,,,0.00,Rainwise IP-100,2013-08-19 04:46:00,
2013-08-19 00:51:00,61.9,61.0,29.83,SE,135,2.0,3.0,98,0.00,,,0.00,Rainwise IP-100,2013-08-19 04:51:00,
2013-08-19 00:56:00,61.9,61.0,29.82,ESE,112,1.0,3.0,97,0.00,,,0.00,Rainwise IP-100,2013-08-19 04:56:00,
2013-08-19 01:01:00,61.9,61.0,29.82,SE,135,1.0,3.0,98,0.00,,,0.00,Rainwise IP-100,2013-08-19 05:01:00,
2013-08-19 01:06:00,61.9,61.0,29.82,SSE,157,2.0,2.0,98,0.00,,,0.00,Rainwise IP-100,2013-08-19 05:06:00,
2013-08-19 01:11:00,61.9,61.0,29.82,South,180,2.0,3.0,97,0.00,,,0.00,Rainwise IP-100,2013-08-19 05:11:00,
2013-08-19 01:16:00,61.9,61.0,29.82,SSE,157,2.0,3.0,97,0.00,,,0.00,Rainwise IP-100,2013-08-19 05:16:00,
2013-08-19 01:21:00,61.9,61.0,29.82,SSE,157,2.0,4.0,98,0.00,,,0.00,Rainwise IP-100,2013-08-19 05:21:00,
2013-08-19 01:26:00,61.7,61.0,29.82,SSE,157,0.0,2.0,98,0.00,,,0.00,Rainwise IP-100,2013-08-19 05:26:00,
2013-08-19 01:31:00,61.5,61.0,29.82,ESE,112,2.0,2.0,98,0.00,,,0.00,Rainwise IP-100,2013-08-19 05:31:00,
2013-08-19 01:36:00,61.3,60.0,29.81,ESE,112,2.0,2.0,98,0.00,,,0.00,Rainwise IP-100,2013-08-19 05:36:00,
2013-08-19 01:41:00,61.2,60.0,29.81,ENE,67,1.0,2.0,98,0.00,,,0.00,Rainwise IP-100,2013-08-19 05:41:00,
2013-08-19 01:46:00,61.3,60.0,29.80,ESE,112,1.0,2.0,98,0.00,,,0.00,Rainwise IP-100,2013-08-19 05:46:00,
2013-08-19 01:51:00,60.9,60.0,29.80,ESE,112,0.0,2.0,98,0.00,,,0.00,Rainwise IP-100,2013-08-19 05:51:00,
2013-08-19 01:56:00,60.9,60.0,29.81,ENE,67,1.0,2.0,98,0.00,,,0.00,Rainwise IP-100,2013-08-19 05:56:00,
2013-08-19 02:01:00,61.1,60.0,29.80,ENE,67,1.0,2.0,98,0.00,,,0.00,Rainwise IP-100,2013-08-19 06:01:00,
2013-08-19 02:06:00,61.4,61.0,29.80,ENE,67,2.0,2.0,98,0.00,,,0.00,Rainwise IP-100,2013-08-19 06:06:00,
2013-08-19 02:11:00,61.6,61.0,29.80,SE,135,1.0,2.0,98,0.00,,,0.00,Rainwise IP-100,2013-08-19 06:11:00,
2013-08-19 02:16:00,61.7,61.0,29.80,SSE,157,1.0,2.0,98,0.00,,,0.00,Rainwise IP-100,2013-08-19 06:16:00,
2013-08-19 02:21:00,61.7,61.0,29.80,SSE,157,0.0,2.0,98,0.00,,,0.00,Rainwise IP-100,2013-08-19 06:21:00,
2013-08-19 02:26:00,61.6,61.0,29.80,SSE,157,0.0,1.0,98,0.00,,,0.00,Rainwise IP-100,2013-08-19 06:26:00,
2013-08-19 02:31:00,61.4,61.0,29.79,SSE,157,0.0,2.0,98,0.00,,,0.00,Rainwise IP-100,2013-08-19 06:31:00,
2013-08-19 02:36:00,61.1,60.0,29.79,SSE,157,1.0,2.0,98,0.00,,,0.00,Rainwise IP-100,2013-08-19 06:36:00,
2013-08-19 02:41:00,60.6,60.0,29.79,SSE,157,0.0,2.0,98,0.00,,,0.00,Rainwise IP-100,2013-08-19 06:41:00,
2013-08-19 02:46:00,60.5,60.0,29.79,SSE,157,0.0,2.0,98,0.00,,,0.00,Rainwise IP-100,2013-08-19 06:46:00,
2013-08-19 02:51:00,60.4,60.0,29.79,SSE,157,0.0,2.0,98,0.00,,,0.00,Rainwise IP-100,2013-08-19 06:51:00,
2013-08-19 02:56:00,60.5,60.0,29.78,SSE,157,1.0,0.0,98,0.00,,,0.00,Rainwise IP-100,2013-08-19 06:56:00,
2013-08-19 03:01:00,60.6,60.0,29.78,SSE,157,2.0,2.0,98,0.00,,,0.00,Rainwise IP-100,2013-08-19 07:01:00,
2013-08-19 03:06:00,60.5,60.0,29.78,ESE,112,1.0,2.0,98,0.00,,,0.00,Rainwise IP-100,2013-08-19 07:06:00,
2013-08-19 03:11:00,60.6,60.0,29.78,ESE,112,1.0,2.0,98,0.00,,,0.00,Rainwise IP-100,2013-08-19 07:11:00,
2013-08-19 03:16:00,60.5,60.0,29.78,ESE,112,0.0,2.0,98,0.00,,,0.00,Rainwise IP-100,2013-08-19 07:16:00,
2013-08-19 03:21:00,60.6,60.0,29.77,ESE,112,1.0,2.0,98,0.00,,,0.00,Rainwise IP-100,2013-08-19 07:21:00,
2013-08-19 03:26:00,60.5,60.0,29.77,ESE,112,2.0,2.0,98,0.00,,,0.00,Rainwise IP-100,2013-08-19 07:26:00,
2013-08-19 03:31:00,60.4,60.0,29.78,ENE,67,2.0,2.0,98,0.00,,,0.00,Rainwise IP-100,2013-08-19 07:31:00,
2013-08-19 03:36:00,60.3,59.0,29.77,ENE,67,1.0,2.0,98,0.00,,,0.00,Rainwise IP-100,2013-08-19 07:36:00,
2013-08-19 03:41:00,60.1,59.0,29.77,ENE,67,1.0,2.0,98,0.00,,,0.00,Rainwise IP-100,2013-08-19 07:41:00,
2013-08-19 03:46:00,60.2,59.0,29.77,ENE,67,2.0,2.0,98,0.00,,,0.00,Rainwise IP-100,2013-08-19 07:46:00,
2013-08-19 03:51:00,59.9,59.0,29.77,ENE,67,1.0,2.0,98,0.00,,,0.00,Rainwise IP-100,2013-08-19 07:51:00,
2013-08-19 03:56:00,59.8,59.0,29.77,ENE,67,1.0,2.0,98,0.00,,,0.00,Rainwise IP-100,2013-08-19 07:56:00,
2013-08-19 04:01:00,59.4,59.0,29.77,ENE,67,1.0,2.0,98,0.00,,,0.00,Rainwise IP-100,2013-08-19 08:01:00,
2013-08-19 04:06:00,59.3,58.0,29.77,ENE,67,1.0,2.0,98,0.00,,,0.00,Rainwise IP-100,2013-08-19 08:06:00,
2013-08-19 04:11:00,59.2,58.0,29.77,ENE,67,1.0,2.0,98,0.00,,,0.00,Rainwise IP-100,2013-08-19 08:11:00,
2013-08-19 04:16:00,59.1,58.0,29.77,ENE,67,1.0,2.0,98,0.00,,,0.00,Rainwise IP-100,2013-08-19 08:16:00,
2013-08-19 04:21:00,59.1,58.0,29.76,ENE,67,1.0,2.0,98,0.00,,,0.00,Rainwise IP-100,2013-08-19 08:21:00,
2013-08-19 04:26:00,59.1,58.0,29.76,ENE,67,1.0,2.0,98,0.00,,,0.00,Rainwise IP-100,2013-08-19 08:26:00,
2013-08-19 04:31:00,58.9,58.0,29.76,ENE,67,1.0,2.0,98,0.00,,,0.00,Rainwise IP-100,2013-08-19 08:31:00,
2013-08-19 04:36:00,58.7,58.0,29.76,ENE,67,2.0,2.0,98,0.00,,,0.00,Rainwise IP-100,2013-08-19 08:36:00,
2013-08-19 04:41:00,58.6,58.0,29.76,ENE,67,1.0,2.0,98,0.00,,,0.00,Rainwise IP-100,2013-08-19 08:41:00,
2013-08-19 04:46:00,58.3,57.0,29.76,ENE,67,2.0,2.0,98,0.00,,,0.00,Rainwise IP-100,2013-08-19 08:46:00,
2013-08-19 04:51:00,58.1,57.0,29.76,ENE,67,2.0,2.0,98,0.00,,,0.00,Rainwise IP-100,2013-08-19 08:51:00,
2013-08-19 04:56:00,58.3,57.0,29.75,ENE,67,1.0,2.0,98,0.00,,,0.00,Rainwise IP-100,2013-08-19 08:56:00,
2013-08-19 05:01:00,58.5,58.0,29.75,ESE,112,1.0,2.0,98,0.00,,,0.00,Rainwise IP-100,2013-08-19 09:01:00,
2013-08-19 05:06:00,58.7,58.0,29.75,East,90,2.0,2.0,98,0.00,,,0.00,Rainwise IP-100,2013-08-19 09:06:00,
2013-08-19 05:11:00,59.1,58.0,29.75,East,90,1.0,3.0,98,0.00,,,0.00,Rainwise IP-100,2013-08-19 09:11:00,
2013-08-19 05:16:00,58.9,58.0,29.74,East,90,2.0,2.0,98,0.00,,,0.00,Rainwise IP-100,2013-08-19 09:16:00,
2013-08-19 05:21:00,58.7,58.0,29.74,ENE,67,2.0,2.0,98,0.00,,,0.00,Rainwise IP-100,2013-08-19 09:21:00,
2013-08-19 05:26:00,58.8,58.0,29.74,ESE,112,2.0,2.0,98,0.00,,,0.00,Rainwise IP-100,2013-08-19 09:26:00,
2013-08-19 05:31:00,58.6,58.0,29.75,ESE,112,1.0,2.0,98,0.00,,,0.00,Rainwise IP-100,2013-08-19 09:31:00,
2013-08-19 05:36:00,58.5,58.0,29.75,ESE,112,2.0,2.0,98,0.00,,,0.00,Rainwise IP-100,2013-08-19 09:36:00,
2013-08-19 05:41:00,58.6,58.0,29.75,ESE,112,2.0,2.0,98,0.00,,,0.00,Rainwise IP-100,2013-08-19 09:41:00,
2013-08-19 05:46:00,58.7,58.0,29.75,ESE,112,2.0,2.0,98,0.00,,,0.00,Rainwise IP-100,2013-08-19 09:46:00,
2013-08-19 05:51:00,58.7,58.0,29.76,ESE,112,2.0,2.0,98,0.00,,,0.00,Rainwise IP-100,2013-08-19 09:51:00,
2013-08-19 05:56:00,58.9,58.0,29.76,ESE,112,1.0,3.0,98,0.00,,,0.00,Rainwise IP-100,2013-08-19 09:56:00,
2013-08-19 06:01:00,59.1,58.0,29.75,ESE,112,0.0,2.0,98,0.00,,,0.00,Rainwise IP-100,2013-08-19 10:01:00,
2013-08-19 06:06:00,59.2,58.0,29.75,SE,135,1.0,2.0,98,0.00,,,0.00,Rainwise IP-100,2013-08-19 10:06:00,
2013-08-19 06:11:00,59.4,59.0,29.75,ESE,112,2.0,2.0,98,0.00,,,0.00,Rainwise IP-100,2013-08-19 10:11:00,
2013-08-19 06:16:00,59.6,59.0,29.75,East,90,0.0,2.0,98,0.00,,,0.00,Rainwise IP-100,2013-08-19 10:16:00,
2013-08-19 06:21:00,59.7,59.0,29.75,ESE,112,2.0,3.0,98,0.00,,,0.00,Rainwise IP-100,2013-08-19 10:21:00,
2013-08-19 06:26:00,59.6,59.0,29.75,SE,135,0.0,6.0,98,0.00,,,0.00,Rainwise IP-100,2013-08-19 10:26:00,
2013-08-19 06:31:00,59.9,59.0,29.75,ESE,112,2.0,4.0,98,0.00,,,0.00,Rainwise IP-100,2013-08-19 10:31:00,
2013-08-19 06:36:00,60.0,59.0,29.75,ESE,112,2.0,3.0,98,0.00,,,0.00,Rainwise IP-100,2013-08-19 10:36:00,
2013-08-19 06:41:00,60.2,59.0,29.75,ESE,112,1.0,2.0,98,0.00,,,0.00,Rainwise IP-100,2013-08-19 10:41:00,
2013-08-19 06:46:00,60.4,60.0,29.75,SE,135,1.0,2.0,98,0.00,,,0.00,Rainwise IP-100,2013-08-19 10:46:00,
2013-08-19 06:51:00,60.6,60.0,29.75,SE,135,1.0,4.0,98,0.00,,,0.00,Rainwise IP-100,2013-08-19 10:51:00,
2013-08-19 06:56:00,60.8,60.0,29.75,SSE,157,1.0,3.0,98,0.00,,,0.00,Rainwise IP-100,2013-08-19 10:56:00,
2013-08-19 07:01:00,60.9,60.0,29.75,SSE,157,2.0,2.0,98,0.00,,,0.00,Rainwise IP-100,2013-08-19 11:01:00,
2013-08-19 07:06:00,61.1,60.0,29.75,SSE,157,0.0,2.0,98,0.00,,,0.00,Rainwise IP-100,2013-08-19 11:06:00,
2013-08-19 07:11:00,61.2,60.0,29.75,SE,135,0.0,4.0,98,0.00,,,0.00,Rainwise IP-100,2013-08-19 11:11:00,
2013-08-19 07:16:00,61.4,61.0,29.75,SSE,157,2.0,3.0,98,0.00,,,0.00,Rainwise IP-100,2013-08-19 11:16:00,
2013-08-19 07:21:00,61.6,61.0,29.75,SSE,157,1.0,4.0,98,0.00,,,0.00,Rainwise IP-100,2013-08-19 11:21:00,
2013-08-19 07:26:00,61.8,61.0,29.75,SE,135,2.0,3.0,98,0.00,,,0.00,Rainwise IP-100,2013-08-19 11:26:00,
2013-08-19 07:31:00,62.1,61.0,29.75,South,180,1.0,3.0,98,0.00,,,0.00,Rainwise IP-100,2013-08-19 11:31:00,
2013-08-19 07:36:00,62.4,62.0,29.75,South,180,0.0,2.0,98,0.00,,,0.00,Rainwise IP-100,2013-08-19 11:36:00,
2013-08-19 07:41:00,62.7,62.0,29.75,SE,135,0.0,4.0,98,0.00,,,0.00,Rainwise IP-100,2013-08-19 11:41:00,
2013-08-19 07:46:00,63.1,62.0,29.75,ESE,112,2.0,3.0,98,0.00,,,0.00,Rainwise IP-100,2013-08-19 11:46:00,
2013-08-19 07:51:00,63.7,63.0,29.75,SE,135,0.0,3.0,98,0.00,,,0.00,Rainwise IP-100,2013-08-19 11:51:00,
2013-08-19 07:56:00,64.3,63.0,29.75,SSE,157,1.0,2.0,98,0.00,,,0.00,Rainwise IP-100,2013-08-19 11:56:00,
2013-08-19 08:01:00,64.9,64.0,29.75,SSW,202,2.0,2.0,96,0.00,,,0.00,Rainwise IP-100,2013-08-19 12:01:00,
2013-08-19 08:06:00,65.7,64.0,29.76,South,180,2.0,2.0,95,0.00,,,0.00,Rainwise IP-100,2013-08-19 12:06:00,
2013-08-19 08:11:00,66.0,63.0,29.76,WSW,247,1.0,2.0,92,0.00,,,0.00,Rainwise IP-100,2013-08-19 12:11:00,
2013-08-19 08:16:00,66.3,65.0,29.76,SSW,202,2.0,2.0,95,0.00,,,0.00,Rainwise IP-100,2013-08-19 12:16:00,
2013-08-19 08:21:00,66.3,63.0,29.76,WSW,247,1.0,2.0,89,0.00,,,0.00,Rainwise IP-100,2013-08-19 12:21:00,
2013-08-19 08:26:00,66.7,63.0,29.76,SE,135,1.0,2.0,88,0.00,,,0.00,Rainwise IP-100,2013-08-19 12:26:00,
2013-08-19 08:31:00,66.9,64.0,29.76,SSW,202,0.0,2.0,90,0.00,,,0.00,Rainwise IP-100,2013-08-19 12:31:00,
2013-08-19 08:36:00,67.3,64.0,29.76,SE,135,2.0,2.0,91,0.00,,,0.00,Rainwise IP-100,2013-08-19 12:36:00,
2013-08-19 08:41:00,67.4,62.0,29.76,South,180,1.0,4.0,83,0.00,,,0.00,Rainwise IP-100,2013-08-19 12:41:00,
2013-08-19 08:46:00,67.9,62.0,29.76,South,180,0.0,2.0,83,0.00,,,0.00,Rainwise IP-100,2013-08-19 12:46:00,
2013-08-19 08:51:00,68.7,62.0,29.76,West,270,0.0,3.0,81,0.00,,,0.00,Rainwise IP-100,2013-08-19 12:51:00,
2013-08-19 08:56:00,69.3,62.0,29.77,SSE,157,1.0,3.0,78,0.00,,,0.00,Rainwise IP-100,2013-08-19 12:56:00,
2013-08-19 09:01:00,69.3,61.0,29.77,SSW,202,2.0,2.0,77,0.00,,,0.00,Rainwise IP-100,2013-08-19 13:01:00,
2013-08-19 09:06:00,69.4,61.0,29.77,WSW,247,1.0,3.0,77,0.00,,,0.00,Rainwise IP-100,2013-08-19 13:06:00,
2013-08-19 09:11:00,69.7,61.0,29.77,WSW,247,2.0,4.0,76,0.00,,,0.00,Rainwise IP-100,2013-08-19 13:11:00,
2013-08-19 09:16:00,69.8,62.0,29.77,West,270,0.0,2.0,77,0.00,,,0.00,Rainwise IP-100,2013-08-19 13:16:00,
2013-08-19 09:21:00,69.9,62.0,29.77,West,270,2.0,4.0,76,0.00,,,0.00,Rainwise IP-100,2013-08-19 13:21:00,
2013-08-19 09:26:00,70.2,61.0,29.77,West,270,2.0,4.0,74,0.00,,,0.00,Rainwise IP-100,2013-08-19 13:26:00,
2013-08-19 09:31:00,70.1,60.0,29.78,WSW,247,4.0,4.0,72,0.00,,,0.00,Rainwise IP-100,2013-08-19 13:31:00,
2013-08-19 09:36:00,70.4,61.0,29.78,SW,225,1.0,4.0,72,0.00,,,0.00,Rainwise IP-100,2013-08-19 13:36:00,
2013-08-19 09:41:00,70.9,60.0,29.78,NW,315,1.0,2.0,70,0.00,,,0.00,Rainwise IP-100,2013-08-19 13:41:00,
2013-08-19 09:46:00,71.1,61.0,29.78,NW,315,2.0,7.0,71,0.00,,,0.00,Rainwise IP-100,2013-08-19 13:46:00,
2013-08-19 09:51:00,71.1,60.0,29.78,SSE,157,2.0,7.0,70,0.00,,,0.00,Rainwise IP-100,2013-08-19 13:51:00,
2013-08-19 09:56:00,71.1,60.0,29.77,SSW,202,5.0,5.0,69,0.00,,,0.00,Rainwise IP-100,2013-08-19 13:56:00,
2013-08-19 10:01:00,71.2,60.0,29.77,WSW,247,0.0,6.0,69,0.00,,,0.00,Rainwise IP-100,2013-08-19 14:01:00,
2013-08-19 10:06:00,71.4,59.0,29.78,West,270,1.0,6.0,66,0.00,,,0.00,Rainwise IP-100,2013-08-19 14:06:00,
2013-08-19 10:11:00,71.7,60.0,29.78,SW,225,2.0,2.0,67,0.00,,,0.00,Rainwise IP-100,2013-08-19 14:11:00,
2013-08-19 10:16:00,71.9,61.0,29.77,West,270,2.0,4.0,68,0.00,,,0.00,Rainwise IP-100,2013-08-19 14:16:00,
2013-08-19 10:21:00,72.4,60.0,29.77,West,270,2.0,4.0,66,0.00,,,0.00,Rainwise IP-100,2013-08-19 14:21:00,
2013-08-19 10:26:00,73.2,61.0,29.78,WSW,247,1.0,8.0,65,0.00,,,0.00,Rainwise IP-100,2013-08-19 14:26:00,
2013-08-19 10:31:00,73.6,59.0,29.78,WSW,247,4.0,7.0,61,0.00,,,0.00,Rainwise IP-100,2013-08-19 14:31:00,
2013-08-19 10:36:00,73.9,60.0,29.78,WSW,247,3.0,6.0,62,0.00,,,0.00,Rainwise IP-100,2013-08-19 14:36:00,
2013-08-19 10:41:00,73.9,60.0,29.78,SW,225,2.0,6.0,61,0.00,,,0.00,Rainwise IP-100,2013-08-19 14:41:00,
2013-08-19 10:46:00,74.2,60.0,29.78,West,270,2.0,5.0,61,0.00,,,0.00,Rainwise IP-100,2013-08-19 14:46:00,
2013-08-19 10:51:00,74.3,60.0,29.78,WSW,247,2.0,6.0,61,0.00,,,0.00,Rainwise IP-100,2013-08-19 14:51:00,
2013-08-19 10:56:00,74.6,60.0,29.78,WSW,247,1.0,6.0,60,0.00,,,0.00,Rainwise IP-100,2013-08-19 14:56:00,
2013-08-19 11:01:00,74.4,59.0,29.77,WSW,247,4.0,9.0,59,0.00,,,0.00,Rainwise IP-100,2013-08-19 15:01:00,
2013-08-19 11:06:00,74.6,59.0,29.77,SSW,202,1.0,8.0,58,0.00,,,0.00,Rainwise IP-100,2013-08-19 15:06:00,
2013-08-19 11:11:00,74.8,59.0,29.77,SSW,202,4.0,7.0,57,0.00,,,0.00,Rainwise IP-100,2013-08-19 15:11:00,
2013-08-19 11:16:00,74.8,59.0,29.76,SW,225,2.0,4.0,59,0.00,,,0.00,Rainwise IP-100,2013-08-19 15:16:00,
2013-08-19 11:21:00,74.6,60.0,29.77,SSW,202,2.0,8.0,60,0.00,,,0.00,Rainwise IP-100,2013-08-19 15:21:00,
2013-08-19 11:26:00,75.3,60.0,29.76,WSW,247,2.0,6.0,60,0.00,,,0.00,Rainwise IP-100,2013-08-19 15:26:00,
2013-08-19 11:31:00,75.6,60.0,29.76,WSW,247,1.0,8.0,59,0.00,,,0.00,Rainwise IP-100,2013-08-19 15:31:00,
2013-08-19 11:36:00,75.6,59.0,29.76,SSW,202,3.0,7.0,57,0.00,,,0.00,Rainwise IP-100,2013-08-19 15:36:00,
2013-08-19 11:41:00,75.7,59.0,29.76,SW,225,2.0,4.0,57,0.00,,,0.00,Rainwise IP-100,2013-08-19 15:41:00,
2013-08-19 11:46:00,75.6,60.0,29.76,SW,225,3.0,9.0,59,0.00,,,0.00,Rainwise IP-100,2013-08-19 15:46:00,
2013-08-19 11:51:00,75.5,60.0,29.75,WSW,247,4.0,6.0,58,0.00,,,0.00,Rainwise IP-100,2013-08-19 15:51:00,
2013-08-19 11:56:00,75.3,60.0,29.75,WSW,247,4.0,7.0,59,0.00,,,0.00,Rainwise IP-100,2013-08-19 15:56:00,
2013-08-19 12:01:00,75.4,60.0,29.76,WSW,247,5.0,7.0,58,0.00,,,0.00,Rainwise IP-100,2013-08-19 16:01:00,
2013-08-19 12:06:00,75.6,60.0,29.75,SW,225,1.0,6.0,58,0.00,,,0.00,Rainwise IP-100,2013-08-19 16:06:00,
2013-08-19 12:11:00,76.3,59.0,29.75,SW,225,4.0,6.0,56,0.00,,,0.00,Rainwise IP-100,2013-08-19 16:11:00,
2013-08-19 12:16:00,76.2,60.0,29.75,WSW,247,3.0,7.0,57,0.00,,,0.00,Rainwise IP-100,2013-08-19 16:16:00,
2013-08-19 12:21:00,76.2,60.0,29.74,WSW,247,4.0,7.0,57,0.00,,,0.00,Rainwise IP-100,2013-08-19 16:21:00,
2013-08-19 12:26:00,76.5,59.0,29.74,WSW,247,2.0,6.0,55,0.00,,,0.00,Rainwise IP-100,2013-08-19 16:26:00,
2013-08-19 12:31:00,76.7,60.0,29.74,WSW,247,3.0,6.0,57,0.00,,,0.00,Rainwise IP-100,2013-08-19 16:31:00,
2013-08-19 12:36:00,76.7,60.0,29.74,SW,225,2.0,6.0,57,0.00,,,0.00,Rainwise IP-100,2013-08-19 16:36:00,
2013-08-19 12:41:00,76.7,60.0,29.75,SW,225,3.0,7.0,56,0.00,,,0.00,Rainwise IP-100,2013-08-19 16:41:00,
2013-08-19 12:46:00,76.8,60.0,29.74,SSW,202,4.0,7.0,56,0.00,,,0.00,Rainwise IP-100,2013-08-19 16:46:00,
2013-08-19 12:51:00,77.1,61.0,29.74,SW,225,2.0,6.0,57,0.00,,,0.00,Rainwise IP-100,2013-08-19 16:51:00,
2013-08-19 12:56:00,77.2,61.0,29.74,WNW,292,4.0,6.0,57,0.00,,,0.00,Rainwise IP-100,2013-08-19 16:56:00,
2013-08-19 13:01:00,77.3,60.0,29.74,WSW,247,2.0,9.0,56,0.00,,,0.00,Rainwise IP-100,2013-08-19 17:01:00,
2013-08-19 13:06:00,77.3,61.0,29.74,WSW,247,4.0,8.0,58,0.00,,,0.00,Rainwise IP-100,2013-08-19 17:06:00,
2013-08-19 13:11:00,77.5,61.0,29.74,West,270,4.0,7.0,57,0.00,,,0.00,Rainwise IP-100,2013-08-19 17:11:00,
2013-08-19 13:16:00,78.0,61.0,29.74,WSW,247,4.0,6.0,56,0.00,,,0.00,Rainwise IP-100,2013-08-19 17:16:00,
2013-08-19 13:21:00,78.2,61.0,29.73,WSW,247,3.0,7.0,55,0.00,,,0.00,Rainwise IP-100,2013-08-19 17:21:00,
2013-08-19 13:26:00,78.6,61.0,29.73,West,270,3.0,5.0,56,0.00,,,0.00,Rainwise IP-100,2013-08-19 17:26:00,
2013-08-19 13:31:00,78.5,61.0,29.73,West,270,2.0,5.0,56,0.00,,,0.00,Rainwise IP-100,2013-08-19 17:31:00,
2013-08-19 13:36:00,78.7,60.0,29.73,South,180,3.0,7.0,54,0.00,,,0.00,Rainwise IP-100,2013-08-19 17:36:00,
2013-08-19 13:41:00,78.5,61.0,29.73,SSW,202,1.0,7.0,55,0.00,,,0.00,Rainwise IP-100,2013-08-19 17:41:00,
2013-08-19 13:46:00,78.8,61.0,29.73,WSW,247,6.0,9.0,55,0.00,,,0.00,Rainwise IP-100,2013-08-19 17:46:00,
2013-08-19 13:51:00,78.7,61.0,29.73,WSW,247,4.0,7.0,56,0.00,,,0.00,Rainwise IP-100,2013-08-19 17:51:00,
2013-08-19 13:56:00,79.1,61.0,29.73,SW,225,2.0,7.0,55,0.00,,,0.00,Rainwise IP-100,2013-08-19 17:56:00,
2013-08-19 14:01:00,78.7,61.0,29.73,West,270,6.0,7.0,55,0.00,,,0.00,Rainwise IP-100,2013-08-19 18:01:00,
2013-08-19 14:06:00,78.6,61.0,29.72,SSW,202,1.0,9.0,55,0.00,,,0.00,Rainwise IP-100,2013-08-19 18:06:00,
2013-08-19 14:11:00,78.7,61.0,29.73,SSW,202,6.0,7.0,55,0.00,,,0.00,Rainwise IP-100,2013-08-19 18:11:00,
2013-08-19 14:16:00,79.2,62.0,29.73,WSW,247,1.0,7.0,55,0.00,,,0.00,Rainwise IP-100,2013-08-19 18:16:00,
2013-08-19 14:21:00,79.2,62.0,29.73,SW,225,4.0,6.0,55,0.00,,,0.00,Rainwise IP-100,2013-08-19 18:21:00,
2013-08-19 14:26:00,79.2,62.0,29.73,WSW,247,4.0,7.0,55,0.00,,,0.00,Rainwise IP-100,2013-08-19 18:26:00,
2013-08-19 14:31:00,79.3,62.0,29.73,WSW,247,6.0,9.0,55,0.00,,,0.00,Rainwise IP-100,2013-08-19 18:31:00,
2013-08-19 14:36:00,79.2,62.0,29.72,SW,225,2.0,6.0,55,0.00,,,0.00,Rainwise IP-100,2013-08-19 18:36:00,
2013-08-19 14:41:00,79.5,62.0,29.72,SW,225,2.0,7.0,55,0.00,,,0.00,Rainwise IP-100,2013-08-19 18:41:00,
2013-08-19 14:46:00,79.7,62.0,29.72,WSW,247,3.0,6.0,55,0.00,,,0.00,Rainwise IP-100,2013-08-19 18:46:00,
2013-08-19 14:51:00,79.7,61.0,29.72,WSW,247,4.0,6.0,54,0.00,,,0.00,Rainwise IP-100,2013-08-19 18:51:00,
2013-08-19 14:56:00,79.5,62.0,29.72,SW,225,4.0,7.0,56,0.00,,,0.00,Rainwise IP-100,2013-08-19 18:56:00,
2013-08-19 15:01:00,79.8,62.0,29.72,SW,225,2.0,7.0,55,0.00,,,0.00,Rainwise IP-100,2013-08-19 19:01:00,
2013-08-19 15:06:00,80.5,62.0,29.72,SSE,157,1.0,8.0,53,0.00,,,0.00,Rainwise IP-100,2013-08-19 19:06:00,
2013-08-19 15:11:00,80.8,62.0,29.73,SSW,202,2.0,7.0,54,0.00,,,0.00,Rainwise IP-100,2013-08-19 19:11:00,
2013-08-19 15:16:00,80.2,62.0,29.72,West,270,4.0,7.0,54,0.00,,,0.00,Rainwise IP-100,2013-08-19 19:16:00,
2013-08-19 15:21:00,80.4,62.0,29.72,WSW,247,4.0,6.0,54,0.00,,,0.00,Rainwise IP-100,2013-08-19 19:21:00,
2013-08-19 15:26:00,80.6,62.0,29.72,SW,225,2.0,6.0,54,0.00,,,0.00,Rainwise IP-100,2013-08-19 19:26:00,
2013-08-19 15:31:00,80.4,62.0,29.72,SE,135,0.0,8.0,54,0.00,,,0.00,Rainwise IP-100,2013-08-19 19:31:00,
2013-08-19 15:36:00,80.6,62.0,29.72,West,270,4.0,7.0,54,0.00,,,0.00,Rainwise IP-100,2013-08-19 19:36:00,
2013-08-19 15:41:00,80.7,62.0,29.72,WSW,247,3.0,7.0,54,0.00,,,0.00,Rainwise IP-100,2013-08-19 19:41:00,
2013-08-19 15:46:00,80.4,62.0,29.72,SW,225,2.0,7.0,54,0.00,,,0.00,Rainwise IP-100,2013-08-19 19:46:00,
2013-08-19 15:51:00,80.4,62.0,29.72,WSW,247,4.0,6.0,54,0.00,,,0.00,Rainwise IP-100,2013-08-19 19:51:00,
2013-08-19 15:56:00,80.2,62.0,29.72,SSE,157,2.0,5.0,55,0.00,,,0.00,Rainwise IP-100,2013-08-19 19:56:00,
2013-08-19 16:01:00,80.2,62.0,29.72,SW,225,2.0,7.0,55,0.00,,,0.00,Rainwise IP-100,2013-08-19 20:01:00,
2013-08-19 16:06:00,80.5,63.0,29.73,SSW,202,1.0,6.0,55,0.00,,,0.00,Rainwise IP-100,2013-08-19 20:06:00,
2013-08-19 16:11:00,80.7,62.0,29.73,South,180,2.0,5.0,54,0.00,,,0.00,Rainwise IP-100,2013-08-19 20:11:00,
2013-08-19 16:16:00,80.7,63.0,29.72,SE,135,2.0,3.0,55,0.00,,,0.00,Rainwise IP-100,2013-08-19 20:16:00,
2013-08-19 16:21:00,80.8,62.0,29.72,West,270,2.0,4.0,53,0.00,,,0.00,Rainwise IP-100,2013-08-19 20:21:00,
2013-08-19 16:26:00,80.9,63.0,29.72,SSW,202,1.0,3.0,54,0.00,,,0.00,Rainwise IP-100,2013-08-19 20:26:00,
2013-08-19 16:31:00,81.2,62.0,29.72,SSW,202,4.0,6.0,52,0.00,,,0.00,Rainwise IP-100,2013-08-19 20:31:00,
2013-08-19 16:36:00,81.3,63.0,29.73,SSW,202,3.0,5.0,54,0.00,,,0.00,Rainwise IP-100,2013-08-19 20:36:00,
2013-08-19 16:41:00,81.5,62.0,29.73,SW,225,0.0,4.0,52,0.00,,,0.00,Rainwise IP-100,2013-08-19 20:41:00,
2013-08-19 16:46:00,81.4,62.0,29.72,WSW,247,1.0,4.0,53,0.00,,,0.00,Rainwise IP-100,2013-08-19 20:46:00,
2013-08-19 16:51:00,81.2,62.0,29.73,SSW,202,2.0,4.0,53,0.00,,,0.00,Rainwise IP-100,2013-08-19 20:51:00,
2013-08-19 16:56:00,80.8,62.0,29.72,SW,225,2.0,3.0,54,0.00,,,0.00,Rainwise IP-100,2013-08-19 20:56:00,
2013-08-19 17:01:00,80.4,63.0,29.72,SSW,202,2.0,4.0,55,0.00,,,0.00,Rainwise IP-100,2013-08-19 21:01:00,
2013-08-19 17:06:00,80.6,62.0,29.72,SSW,202,2.0,3.0,54,0.00,,,0.00,Rainwise IP-100,2013-08-19 21:06:00,
2013-08-19 17:11:00,80.5,62.0,29.72,SSW,202,2.0,4.0,53,0.00,,,0.00,Rainwise IP-100,2013-08-19 21:11:00,
2013-08-19 17:16:00,79.9,62.0,29.73,SE,135,0.0,5.0,55,0.00,,,0.00,Rainwise IP-100,2013-08-19 21:16:00,
2013-08-19 17:21:00,79.7,62.0,29.72,SW,225,1.0,5.0,55,0.00,,,0.00,Rainwise IP-100,2013-08-19 21:21:00,
2013-08-19 17:26:00,79.6,62.0,29.73,South,180,1.0,5.0,56,0.00,,,0.00,Rainwise IP-100,2013-08-19 21:26:00,
2013-08-19 17:31:00,79.4,63.0,29.72,SW,225,1.0,3.0,57,0.00,,,0.00,Rainwise IP-100,2013-08-19 21:31:00,
2013-08-19 17:36:00,79.3,63.0,29.72,West,270,1.0,3.0,57,0.00,,,0.00,Rainwise IP-100,2013-08-19 21:36:00,
2013-08-19 17:41:00,78.8,62.0,29.72,WSW,247,2.0,6.0,57,0.00,,,0.00,Rainwise IP-100,2013-08-19 21:41:00,
2013-08-19 17:46:00,78.5,62.0,29.73,SW,225,2.0,6.0,58,0.00,,,0.00,Rainwise IP-100,2013-08-19 21:46:00,
2013-08-19 17:51:00,78.5,63.0,29.73,WSW,247,2.0,4.0,59,0.00,,,0.00,Rainwise IP-100,2013-08-19 21:51:00,
2013-08-19 17:56:00,78.5,62.0,29.72,SW,225,2.0,4.0,58,0.00,,,0.00,Rainwise IP-100,2013-08-19 21:56:00,
2013-08-19 18:01:00,78.6,62.0,29.72,SSE,157,2.0,5.0,58,0.00,,,0.00,Rainwise IP-100,2013-08-19 22:01:00,
2013-08-19 18:06:00,76.7,62.0,29.72,SSE,157,2.0,8.0,60,0.00,,,0.00,Rainwise IP-100,2013-08-19 22:06:00,
2013-08-19 18:11:00,75.3,61.0,29.72,SSE,157,3.0,7.0,63,0.00,,,0.00,Rainwise IP-100,2013-08-19 22:11:00,
2013-08-19 18:16:00,74.8,62.0,29.72,SSW,202,2.0,7.0,64,0.00,,,0.00,Rainwise IP-100,2013-08-19 22:16:00,
2013-08-19 18:21:00,74.1,61.0,29.72,SE,135,2.0,7.0,65,0.00,,,0.00,Rainwise IP-100,2013-08-19 22:21:00,
2013-08-19 18:26:00,73.4,61.0,29.72,SSE,157,4.0,8.0,66,0.00,,,0.00,Rainwise IP-100,2013-08-19 22:26:00,
2013-08-19 18:31:00,72.6,62.0,29.72,ESE,112,3.0,7.0,69,0.00,,,0.00,Rainwise IP-100,2013-08-19 22:31:00,
2013-08-19 18:36:00,72.2,62.0,29.72,SE,135,2.0,6.0,70,0.00,,,0.00,Rainwise IP-100,2013-08-19 22:36:00,
2013-08-19 18:41:00,71.7,61.0,29.72,ESE,112,3.0,6.0,71,0.00,,,0.00,Rainwise IP-100,2013-08-19 22:41:00,
2013-08-19 18:46:00,71.4,61.0,29.71,SE,135,2.0,5.0,72,0.00,,,0.00,Rainwise IP-100,2013-08-19 22:46:00,
2013-08-19 18:51:00,71.4,61.0,29.71,SE,135,2.0,4.0,72,0.00,,,0.00,Rainwise IP-100,2013-08-19 22:51:00,
2013-08-19 18:56:00,71.3,62.0,29.71,SSE,157,1.0,6.0,73,0.00,,,0.00,Rainwise IP-100,2013-08-19 22:56:00,
2013-08-19 19:01:00,71.0,62.0,29.71,ESE,112,2.0,7.0,74,0.00,,,0.00,Rainwise IP-100,2013-08-19 23:01:00,
2013-08-19 19:06:00,70.6,62.0,29.71,SE,135,2.0,5.0,76,0.00,,,0.00,Rainwise IP-100,2013-08-19 23:06:00,
2013-08-19 19:11:00,70.3,62.0,29.71,ESE,112,0.0,5.0,75,0.00,,,0.00,Rainwise IP-100,2013-08-19 23:11:00,
2013-08-19 19:16:00,69.9,62.0,29.72,ESE,112,2.0,3.0,77,0.00,,,0.00,Rainwise IP-100,2013-08-19 23:16:00,
2013-08-19 19:21:00,69.6,62.0,29.72,SE,135,2.0,4.0,77,0.00,,,0.00,Rainwise IP-100,2013-08-19 23:21:00,
2013-08-19 19:26:00,69.3,61.0,29.72,SE,135,1.0,2.0,77,0.00,,,0.00,Rainwise IP-100,2013-08-19 23:26:00,
2013-08-19 19:31:00,69.1,62.0,29.71,ESE,112,0.0,3.0,79,0.00,,,0.00,Rainwise IP-100,2013-08-19 23:31:00,
2013-08-19 19:36:00,68.9,62.0,29.72,SSE,157,2.0,2.0,79,0.00,,,0.00,Rainwise IP-100,2013-08-19 23:36:00,
2013-08-19 19:41:00,68.9,62.0,29.72,ENE,67,1.0,2.0,79,0.00,,,0.00,Rainwise IP-100,2013-08-19 23:41:00,
2013-08-19 19:46:00,68.7,62.0,29.71,ENE,67,0.0,2.0,80,0.00,,,0.00,Rainwise IP-100,2013-08-19 23:46:00,
2013-08-19 19:51:00,68.4,62.0,29.71,ENE,67,2.0,2.0,81,0.00,,,0.00,Rainwise IP-100,2013-08-19 23:51:00,
2013-08-19 19:56:00,68.2,62.0,29.71,SE,135,2.0,2.0,81,0.00,,,0.00,Rainwise IP-100,2013-08-19 23:56:00,
2013-08-19 20:01:00,68.2,62.0,29.71,SE,135,1.0,2.0,81,0.00,,,0.00,Rainwise IP-100,2013-08-20 00:01:00,
2013-08-19 20:06:00,68.3,62.0,29.71,ESE,112,0.0,2.0,81,0.00,,,0.00,Rainwise IP-100,2013-08-20 00:06:00,
2013-08-19 20:11:00,68.2,62.0,29.71,ESE,112,0.0,2.0,82,0.00,,,0.00,Rainwise IP-100,2013-08-20 00:11:00,
2013-08-19 20:16:00,67.9,62.0,29.71,ESE,112,1.0,2.0,83,0.00,,,0.00,Rainwise IP-100,2013-08-20 00:16:00,
2013-08-19 20:21:00,67.7,62.0,29.71,ESE,112,1.0,2.0,84,0.00,,,0.00,Rainwise IP-100,2013-08-20 00:21:00,
2013-08-19 20:26:00,67.4,63.0,29.72,ESE,112,2.0,2.0,85,0.00,,,0.00,Rainwise IP-100,2013-08-20 00:26:00,
2013-08-19 20:31:00,67.3,63.0,29.72,ESE,112,1.0,2.0,86,0.00,,,0.00,Rainwise IP-100,2013-08-20 00:31:00,
2013-08-19 20:36:00,67.2,63.0,29.72,ESE,112,2.0,2.0,87,0.00,,,0.00,Rainwise IP-100,2013-08-20 00:36:00,
2013-08-19 20:41:00,66.9,63.0,29.72,ESE,112,2.0,2.0,88,0.00,,,0.00,Rainwise IP-100,2013-08-20 00:41:00,
2013-08-19 20:46:00,66.8,63.0,29.72,ESE,112,1.0,2.0,88,0.00,,,0.00,Rainwise IP-100,2013-08-20 00:46:00,
2013-08-19 20:51:00,66.7,63.0,29.72,ESE,112,2.0,2.0,88,0.00,,,0.00,Rainwise IP-100,2013-08-20 00:51:00,
2013-08-19 20:56:00,67.1,63.0,29.72,ENE,67,2.0,2.0,87,0.00,,,0.00,Rainwise IP-100,2013-08-20 00:56:00,
2013-08-19 21:01:00,67.1,63.0,29.72,ENE,67,1.0,2.0,88,0.00,,,0.00,Rainwise IP-100,2013-08-20 01:01:00,
2013-08-19 21:06:00,66.8,63.0,29.72,ENE,67,1.0,2.0,89,0.00,,,0.00,Rainwise IP-100,2013-08-20 01:06:00,
2013-08-19 21:11:00,66.7,63.0,29.71,ENE,67,2.0,2.0,89,0.00,,,0.00,Rainwise IP-100,2013-08-20 01:11:00,
2013-08-19 21:16:00,66.6,63.0,29.71,ENE,67,2.0,2.0,89,0.00,,,0.00,Rainwise IP-100,2013-08-20 01:16:00,
2013-08-19 21:21:00,66.4,63.0,29.71,ENE,67,1.0,2.0,90,0.00,,,0.00,Rainwise IP-100,2013-08-20 01:21:00,
2013-08-19 21:26:00,66.6,63.0,29.71,ENE,67,1.0,2.0,90,0.00,,,0.00,Rainwise IP-100,2013-08-20 01:26:00,
2013-08-19 21:31:00,66.4,63.0,29.71,ENE,67,2.0,2.0,90,0.00,,,0.00,Rainwise IP-100,2013-08-20 01:31:00,
2013-08-19 21:36:00,66.4,63.0,29.71,ENE,67,1.0,2.0,90,0.00,,,0.00,Rainwise IP-100,2013-08-20 01:36:00,
2013-08-19 21:41:00,66.7,63.0,29.71,ENE,67,1.0,2.0,89,0.00,,,0.00,Rainwise IP-100,2013-08-20 01:41:00,
2013-08-19 21:46:00,66.9,64.0,29.71,ENE,67,1.0,2.0,89,0.00,,,0.00,Rainwise IP-100,2013-08-20 01:46:00,
2013-08-19 21:51:00,66.8,63.0,29.71,ENE,67,1.0,2.0,89,0.00,,,0.00,Rainwise IP-100,2013-08-20 01:51:00,
2013-08-19 21:56:00,66.7,63.0,29.72,ENE,67,1.0,2.0,90,0.00,,,0.00,Rainwise IP-100,2013-08-20 01:56:00,
2013-08-19 22:01:00,66.6,64.0,29.72,ENE,67,1.0,2.0,91,0.00,,,0.00,Rainwise IP-100,2013-08-20 02:01:00,
2013-08-19 22:06:00,66.6,64.0,29.72,ENE,67,1.0,2.0,91,0.00,,,0.00,Rainwise IP-100,2013-08-20 02:06:00,
2013-08-19 22:11:00,66.3,64.0,29.72,ENE,67,1.0,2.0,92,0.00,,,0.00,Rainwise IP-100,2013-08-20 02:11:00,
2013-08-19 22:16:00,66.3,64.0,29.72,ENE,67,1.0,2.0,92,0.00,,,0.00,Rainwise IP-100,2013-08-20 02:16:00,
2013-08-19 22:21:00,66.4,64.0,29.72,ENE,67,2.0,2.0,92,0.00,,,0.00,Rainwise IP-100,2013-08-20 02:21:00,
2013-08-19 22:26:00,66.1,63.0,29.72,ENE,67,1.0,2.0,92,0.00,,,0.00,Rainwise IP-100,2013-08-20 02:26:00,
2013-08-19 22:31:00,66.1,64.0,29.72,ENE,67,2.0,2.0,93,0.00,,,0.00,Rainwise IP-100,2013-08-20 02:31:00,
2013-08-19 22:36:00,66.0,64.0,29.72,ENE,67,2.0,2.0,93,0.00,,,0.00,Rainwise IP-100,2013-08-20 02:36:00,
2013-08-19 22:41:00,65.9,63.0,29.72,ENE,67,2.0,3.0,92,0.00,,,0.00,Rainwise IP-100,2013-08-20 02:41:00,
2013-08-19 22:46:00,65.9,63.0,29.72,ENE,67,1.0,2.0,92,0.00,,,0.00,Rainwise IP-100,2013-08-20 02:46:00,
2013-08-19 22:51:00,65.6,63.0,29.72,ENE,67,1.0,2.0,93,0.00,,,0.00,Rainwise IP-100,2013-08-20 02:51:00,
2013-08-19 22:56:00,65.4,63.0,29.73,ENE,67,2.0,2.0,93,0.00,,,0.00,Rainwise IP-100,2013-08-20 02:56:00,
2013-08-19 23:01:00,65.2,63.0,29.73,ENE,67,1.0,2.0,94,0.00,,,0.00,Rainwise IP-100,2013-08-20 03:01:00,
2013-08-19 23:06:00,65.2,63.0,29.73,ENE,67,1.0,2.0,94,0.00,,,0.00,Rainwise IP-100,2013-08-20 03:06:00,
2013-08-19 23:11:00,65.3,63.0,29.73,ENE,67,2.0,2.0,94,0.00,,,0.00,Rainwise IP-100,2013-08-20 03:11:00,
2013-08-19 23:16:00,65.4,63.0,29.73,ENE,67,2.0,2.0,94,0.00,,,0.00,Rainwise IP-100,2013-08-20 03:16:00,
2013-08-19 23:21:00,65.3,63.0,29.73,ENE,67,2.0,2.0,94,0.00,,,0.00,Rainwise IP-100,2013-08-20 03:21:00,
2013-08-19 23:26:00,65.4,63.0,29.73,ENE,67,1.0,2.0,94,0.00,,,0.00,Rainwise IP-100,2013-08-20 03:26:00,
2013-08-19 23:31:00,65.3,63.0,29.73,ENE,67,2.0,2.0,93,0.00,,,0.00,Rainwise IP-100,2013-08-20 03:31:00,
2013-08-19 23:36:00,65.1,63.0,29.73,ENE,67,1.0,2.0,95,0.00,,,0.00,Rainwise IP-100,2013-08-20 03:36:00,
2013-08-19 23:41:00,65.1,63.0,29.72,ENE,67,2.0,2.0,95,0.00,,,0.00,Rainwise IP-100,2013-08-20 03:41:00,
2013-08-19 23:46:00,65.0,64.0,29.72,ENE,67,2.0,2.0,96,0.00,,,0.00,Rainwise IP-100,2013-08-20 03:46:00,
2013-08-19 23:51:00,65.1,63.0,29.72,ENE,67,2.0,2.0,95,0.00,,,0.00,Rainwise IP-100,2013-08-20 03:51:00,
2013-08-19 23:56:00,64.9,63.0,29.73,ENE,67,0.0,2.0,95,0.00,,,0.00,Rainwise IP-100,2013-08-20 03:56:00,